Tracking 21473 objects as of 19-Sep-2020
HD Live streaming from Space Station
objects crossing your sky now

ATLAS CENTAUR R/B

Track ATLAS CENTAUR R/B now!


NORAD ID: 4882
Int'l Code: 1971-006B
Perigee: 664.2 km
Apogee: 36,435.6 km
Inclination: 27.5 °
Period: 652.5 minutes
Semi major axis: 24920 km
RCS: 15.787 m2 (large)
Launch date: January 26, 1971
Source: United States (US)
Launch site: AIR FORCE EASTERN TEST RANGE (AFETR)

Note: This is a ROCKET BODY
aabbcc
Your satellite tracking list
Your tracking list is empty




NASA's NSSDC Master Catalog

Two Line Element Set (TLE):
1  4882U 71006B   20262.40344774 -.00000034 +00000-0 +13157-4 0  9990
2  4882 027.5219 214.2639 7177007 028.5297 102.0341 02.20677170396875
Source of the keplerian elements: AFSPC